Regional Weather Roundup
Issued by NWS

Home | Current Version | Previous Version | Graphics & Text | Print | Product List | Glossary Off
Versions: 1 2 3 4 5 6 7 8 9 10 11 12 13 14 15 16 17 18 19 20 21 22 23 24 25 26 27 28 29 30 31 32 33 34 35 36 37 38 39 40 41 42 43 44 45 46 47 48 49 50

000
ASUS43 KDMX 291606
RWRIA

WEATHER ROUNDUP FOR IOWA
NATIONAL WEATHER SERVICE DES MOINES IA
1100 AM CDT WED MAR 29 2017

NOTE: "FAIR" INDICATES FEW OR NO CLOUDS BELOW 12,000 FEET WITH NO
SIGNIFICANT WEATHER AND/OR OBSTRUCTIONS TO VISIBILITY.

* - THESE STATIONS ARE NOT NWS STATIONS...THUS NOT UNDER NWS
QUALITY CONTROL.  THEY ALSO DO NOT REPORT WEATHER SUCH
AS PRECIPITATION OR FOG.

IAZ001>003-012>014-020>022-031>034-043>046-291700-
   NORTHWEST IOWA

CITY           SKY/WX    TMP DP  RH WIND       PRES   REMARKS
CARROLL *      LGT RAIN  43  41  93 E18       30.06F
CHEROKEE *     CLOUDY    44  42  93 NE15G21   30.09F
DENISON *      CLOUDY    43  43 100 NE18G30   30.04F FOG
LE MARS *      CLOUDY    45  41  87 NE16G22   30.10F
ORANGE CITY *  LGT RAIN  43  41  93 E17G23    30.11F
SHELDON *      CLOUDY    45  39  81 E18G25    30.12S
SIOUX CITY     CLOUDY    45  43  93 NE10      30.07F
SPENCER        LGT RAIN  44  40  85 NE22G29   30.13F
STORM LAKE *   CLOUDY    45  41  87 E17       30.08F
$$

IAZ055>058-069>071-079>083-090>094-291700-
   SOUTHWEST IOWA

CITY           SKY/WX    TMP DP  RH WIND       PRES   REMARKS
ATLANTIC *     RAIN      43  43 100 NE15G22   30.00F
AUDUBON *      RAIN      43  39  87 NE20      30.04F
CLARINDA *     CLOUDY    45  45 100 NE14G22   29.95F FOG
COUNCIL BLFS * CLOUDY    43  43 100 NE17G26   29.97F
CRESTON *      LGT RAIN  41  41 100 NE23      29.97F
HARLAN  *      LGT RAIN  43  43 100 NE17G26   30.04F
LAMONI         CLOUDY    43  41  93 E16G24    29.94F
RED OAK *      MIX PCPN  43  43 100 NE17G24   29.96F
SHENANDOAH *   MIX PCPN  45  43  93 NE23      29.93F
$$

IAZ047>049-059>061-072>074-084-291700-
   CENTRAL IOWA

CITY           SKY/WX    TMP DP  RH WIND       PRES   REMARKS
AMES           LGT RAIN  41  41 100 E12       30.09S FOG
ANKENY *       CLOUDY    41  41 100 MISG      30.08S FOG
BOONE *        LGT RAIN  41  41 100 E16       30.08S
CHARITON *     CLOUDY    43  41  93 E16       29.99F
DES MOINES     LGT RAIN  43  40  89 E13       30.05F FOG
GRINNELL*      CLOUDY    42  40  94 E16       30.11R FOG
KNOXVILLE *    CLOUDY    43  41  93 E15G22    30.02F
MARSHALLTOWN   LGT RAIN  41  41 100 E17       30.10S FOG
NEWTON *       CLOUDY    43  41  93 E16G24    30.07S FOG
PELLA *        CLOUDY    43  41  95 E13G20    30.07F
PERRY *        LGT RAIN  41  40  95 NE13      30.06F
$$

IAZ004>006-015-016-023>025-035-036-291700-
   NORTH CENTRAL IOWA

CITY           SKY/WX    TMP DP  RH WIND       PRES   REMARKS
ALGONA *       CLOUDY    45  37  76 E17G25    30.14R
CLARION *      CLOUDY    41  41 100 E18       30.13S
ESTHERVILLE    LGT RAIN  43  40  89 E25G32    30.17R
FORT DODGE *   CLOUDY    41  36  81 E14       30.12S
MASON CITY     CLOUDY    43  37  79 E15       30.18F
FOREST CITY *  CLOUDY    43  36  75 E10G20    30.17R
WEBSTER CITY * MIX PCPN  41  39  93 E15       30.10R
IOWA FALLS *   LGT RAIN  41  39  93 E17       30.14R
$$

IAZ007>011-017>019-026>030-037>042-050>054-066-291700-
   NORTHEAST IOWA

CITY           SKY/WX    TMP DP  RH WIND       PRES   REMARKS
CEDAR RAPIDS   LGT RAIN  42  42 100 E15G26    30.10F FOG
CHARLES CITY * PTSUNNY   43  39  87 E14G23    30.19S
CLINTON *      LGT RAIN  43  39  86 E21       30.16F
DECORAH *      CLOUDY    43  36  75 E13G18    30.20S
DUBUQUE        CLOUDY    43  34  70 E16       30.17F
MONTICELLO *   CLOUDY    43  39  87 E13       30.16R
OELWEIN *      CLOUDY    43  41  93 E13G21    30.18R
WATERLOO       CLOUDY    43  38  82 E16       30.15S
$$

IAZ064-065-067-068-078-291700-
   EAST CENTRAL IOWA

CITY           SKY/WX    TMP DP  RH WIND       PRES   REMARKS
DAVENPORT      LGT RAIN  42  39  89 E21       30.15F FOG
IOWA CITY      LGT RAIN  44  41  89 E14       30.13R
MUSCATINE *    CLOUDY    45  41  87 E13G21    30.13F FOG
QUAD CITIES    LGT RAIN  43  40  89 E15       30.16F FOG
$$

IAZ062-063-075>077-085>089-095>099-291700-
   SOUTHEAST IOWA

CITY           SKY/WX    TMP DP  RH WIND       PRES   REMARKS
BURLINGTON     LGT RAIN  45  45 100 E16G25    30.08F FOG
FAIRFIELD *    CLOUDY    45  43  93 E17G24    30.06F FOG
FORT MADISON * LGT RAIN  45  45 100 E14G22    30.07F
KEOKUK *       LGT RAIN  46  45  93 E15       30.06S
OSKALOOSA *    LGT RAIN  44  42  95 E18G29    30.05S
CENTERVILLE *  CLOUDY    41  41 100 E15G23    30.00F
OTTUMWA        LGT RAIN  45  44  97 E20       30.04F
WASHINGTON *   CLOUDY    45  45 100 E21       30.11R FOG
$$

ABBREVIATIONS USED IN REMARKS
   TC - TEMPERATURES IN CELSIUS
  WCI - WIND CHILL INDEX
   HX - HEAT INDEX
  VSB - VISIBILITY
$$





USA.gov is the U.S. government's official web portal to all federal, state and local government web resources and services.